Location: Bottens
(46.6171°N, 6.6605°E)
Time: 11:50:38
(UTC+00:00)

ATLAS 5 CENTAUR R/B - Pass Details

Date: 31 October 2021
Orbit: 497 x 1159 km, 63.4° (Epoch: 25 November)

Event Time Altitude Azimuth Distance (km) Brightness Sun altitude
Rises 19:05:09 0° 315° (NW) 2,917 5.8 -28.9°
Reaches altitude 10° 19:08:52 10° 348° (NNW) 2,156 4.6 -29.5°
Enters shadow 19:10:02 12° 2° (N) 2,086 4.3 -29.7°
